Wind_Speed
2 2 2 2 2 2 3 3 3 4 5 4 4 4 3 3 4 4 3 3 3 3 3 3 4 5 5 6 6 6 6 7 7 7 7 7 7 7 7 7 7 7 7
2 2 2 3 3 3 3 3 4 4 4 4 4 4 4 4 4 4 4 3 3 3 4 4 4 5 5 6 6 7 7 7 7 8 8 7 7 8 8 7 7 6 6
3 3 3 3 3 3 3 4 4 4 4 4 4 4 4 5 5 4 4 4 4 4 4 4 4 5 6 6 6 7 7 7 8 8 8 8 8 8 9 8 7 7 7
4 4 4 4 3 4 4 4 4 4 4 4 4 5 5 5 4 4 4 4 4 4 4 4 4 5 5 6 6 7 7 7 8 9 8 8 8 8 9 9 8 7 7
4 4 4 4 4 4 4 4 4 5 5 5 5 5 6 5 5 5 4 5 5 5 5 5 5 5 5 5 6 7 7 8 8 8 8 8 8 8 8 9 9 8 8
5 5 5 5 5 5 5 5 5 5 5 5 5 5 5 5 5 5 5 5 6 6 6 5 5 5 6 6 6 7 7 8 8 9 8 8 9 9 9 9 9 9 9
6 6 6 6 6 6 6 6 6 5 5 5 5 5 5 5 6 6 6 6 6 6 6 6 6 6 6 6 7 7 7 8 8 9 8 9 9 9 9 9 10 10 9
6 6 6 6 6 6 6 6 6 6 6 6 6 6 6 6 6 6 6 6 6 6 6 6 6 6 6 6 7 7 7 8 8 8 9 9 9 9 10 9 10 10 10
7 7 6 6 6 6 6 6 6 6 7 6 6 7 6 6 6 6 7 7 7 6 6 6 6 6 6 6 6 7 7 7 8 8 8 9 9 10 9 9 9 10 11
7 7 7 7 7 7 6 6 7 7 7 7 7 6 6 6 5 6 6 6 6 6 6 6 6 6 6 6 6 6 7 7 7 8 8 9 9 10 9 9 9 10 10
7 8 8 7 7 7 7 7 7 7 7 6 6 6 6 6 6 6 6 6 7 6 6 6 6 6 5 5 5 6 6 7 7 7 7 8 8 9 8 9 9 9 9
8 8 8 7 7 7 8 8 7 7 7 7 6 6 6 6 6 6 6 6 6 6 6 6 6 5 5 6 6 6 6 6 7 7 7 7 8 8 8 9 8 8 9
8 8 8 8 8 8 8 8 8 8 7 7 6 6 6 6 5 5 6 6 5 5 5 5 5 5 5 6 6 6 6 6 6 6 7 8 8 8 8 9 8 8 9
8 8 8 8 8 8 8 8 8 7 7 6 5 5 5 5 5 5 5 5 4 4 5 4 4 4 5 5 5 5 5 5 6 6 7 7 7 8 8 8 8 9 9
8 7 7 8 7 8 8 8 7 7 6 6 5 5 6 5 5 4 5 4 4 4 4 3 3 4 4 4 5 5 5 5 5 6 7 6 7 7 7 7 7 8 9
7 6 7 7 7 7 7 8 7 7 6 6 5 5 5 5 4 4 4 3 3 3 3 3 3 3 3 3 3 4 5 4 5 5 6 5 5 6 6 7 7 8 8
6 5 7 7 7 7 7 7 7 6 6 6 6 6 5 4 3 3 3 3 3 3 3 2 2 2 2 2 2 3 3 4 5 4 4 5 4 5 6 6 6 7 7
6 6 6 7 6 6 7 7 7 7 5 6 5 5 4 4 3 3 3 2 2 2 2 2 2 1 2 2 2 3 2 2 3 3 3 4 4 5 5 5 6 5 5
5 5 6 5 6 6 7 7 6 6 5 5 5 4 4 4 3 3 2 2 1 1 1 1 1 1 1 1 1 2 1 1 1 2 3 3 4 4 4 5 5 5 5
6 5 5 6 6 6 6 6 6 6 4 4 4 4 3 4 3 2 2 1 1 1 0 1 1 2 2 2 1 2 2 2 2 2 3 3 3 3 4 5 5 5 5
6 6 6 6 6 6 5 5 5 5 4 4 3 3 3 3 2 2 1 1 1 1 0 1 1 2 3 2 1 1 2 2 2 2 3 3 4 4 4 4 5 6 6
6 5 6 6 5 5 5 5 5 5 4 3 4 3 3 3 2 2 2 2 2 2 1 1 1 1 2 2 2 2 2 2 2 3 3 4 4 4 5 5 4 5 5
6 5 6 6 6 6 6 5 5 4 4 4 4 3 3 3 2 2 2 1 2 1 1 1 1 2 2 2 2 2 2 2 3 3 4 4 5 5 6 6 6 6 6
6 6 6 6 6 6 6 6 5 4 3 4 4 3 3 3 3 2 2 2 2 2 2 1 2 2 2 2 2 2 2 2 3 3 4 4 5 5 5 5 6 6 7
6 6 5 6 6 6 7 6 6 5 4 4 4 4 3 3 3 2 2 2 2 2 2 3 3 3 3 3 3 3 4 3 4 5 5 5 6 5 6 6 6 6 7
6 6 6 6 6 7 7 7 7 6 6 6 6 4 4 4 3 2 2 3 2 3 3 4 4 4 4 4 5 5 5 5 5 6 6 6 7 7 7 7 8 8 9
Wind_Direction
322 337 348 342 332 336 340 338 331 328 329 324 316 309 303 301 306 310 308 304 297 290 279 266 247 244 245 240 236 233 231 225 223 223 223 223 225 227 224 222 214 215 214
301 313 321 323 311 306 311 320 321 317 316 314 307 304 300 297 300 301 302 307 303 289 283 274 256 248 248 244 240 235 234 229 226 225 224 226 227 228 225 224 220 220 217
287 302 306 303 300 300 300 307 309 310 310 310 307 302 299 301 298 296 298 295 298 293 277 271 265 259 254 246 241 236 234 231 228 226 226 229 230 229 224 225 228 226 219
286 292 294 290 296 298 295 298 300 308 312 309 305 300 300 301 299 297 298 297 295 287 277 266 269 268 261 250 242 236 234 232 232 229 228 229 229 225 222 225 233 227 220
282 287 283 280 292 299 290 291 293 302 307 305 302 298 297 297 294 291 289 292 290 286 285 277 271 273 268 256 245 238 237 237 236 235 234 232 228 225 226 229 233 234 228
270 276 278 275 283 291 294 296 293 295 301 299 296 295 292 290 289 287 283 287 286 281 279 275 275 276 271 261 252 246 244 242 240 241 239 232 230 229 232 234 236 238 236
266 273 277 280 280 281 286 288 288 289 293 295 292 292 293 288 284 284 284 283 282 280 279 273 273 277 272 263 256 251 250 250 245 243 240 236 234 233 235 237 237 238 236
269 270 274 281 279 275 278 289 283 283 287 288 289 292 294 291 288 287 284 283 281 283 285 279 273 276 274 269 262 255 253 250 248 245 241 240 237 236 237 239 236 235 234
264 267 269 273 274 274 279 286 284 286 286 287 289 293 295 292 288 287 282 280 276 279 280 280 278 279 274 271 263 255 255 253 250 246 243 241 238 237 237 239 238 236 234
261 267 269 269 270 269 275 280 282 284 286 289 289 288 285 288 287 293 288 278 275 275 277 279 277 275 272 272 265 256 255 258 251 246 243 240 239 239 239 242 242 240 237
261 266 274 273 269 269 272 275 283 286 286 290 291 285 284 285 290 297 292 286 278 275 277 277 274 270 267 270 265 256 252 256 249 245 244 239 240 238 241 243 243 243 243
262 263 268 269 267 271 271 269 276 278 281 285 287 289 290 291 293 298 296 291 283 275 274 275 272 267 264 266 265 260 254 253 249 246 245 241 241 242 243 242 241 244 247
262 266 264 259 263 267 269 270 274 270 275 280 287 296 293 290 294 299 296 293 288 277 274 273 268 266 268 265 262 259 256 255 248 244 246 244 244 247 243 242 243 244 246
261 266 262 258 263 264 267 273 273 271 273 276 283 287 293 291 291 297 298 300 290 279 272 272 270 266 266 265 264 260 258 256 248 243 244 243 245 249 244 242 244 245 247
256 261 261 260 266 267 271 273 274 269 271 272 268 274 283 288 289 296 306 302 288 282 274 270 272 273 273 270 265 258 253 251 246 242 242 238 240 244 244 241 243 244 245
254 259 258 256 263 269 270 267 267 270 273 269 265 274 280 283 284 289 299 297 287 286 281 269 266 267 268 270 273 263 257 250 248 246 242 234 239 242 245 242 248 249 245
254 261 260 260 265 265 260 259 259 264 265 262 261 267 267 270 271 287 294 288 290 292 274 253 249 253 257 270 280 279 262 248 247 244 240 242 246 247 249 250 257 253 245
263 261 260 268 265 255 253 255 261 257 258 257 258 262 258 262 272 284 285 283 288 293 280 249 239 234 256 261 274 280 269 243 237 248 244 244 251 254 252 255 257 253 239
270 261 254 261 265 259 249 254 263 257 256 249 248 258 261 263 276 286 278 267 289 299 294 244 236 238 239 243 258 264 261 261 249 259 254 246 252 248 242 248 251 251 246
262 260 256 264 263 263 258 257 257 256 251 245 247 249 258 262 269 266 268 270 281 295 265 230 245 254 246 251 259 248 253 257 262 254 254 253 254 244 249 250 246 244 247
251 255 259 261 266 265 254 254 261 258 254 244 239 246 253 262 257 251 283 277 244 235 231 270 265 266 256 254 254 247 257 255 245 251 260 259 252 253 256 255 249 247 248
246 252 255 258 259 252 245 254 261 257 248 237 229 230 246 255 242 234 241 244 229 220 223 288 292 278 266 257 251 257 266 266 256 256 264 264 264 263 261 260 259 258 261
241 255 251 252 253 248 246 250 254 249 243 236 221 228 233 226 228 231 251 224 217 210 221 263 277 293 291 284 260 262 259 271 270 266 268 271 270 261 259 263 267 267 269
240 251 254 254 250 242 238 243 246 241 236 228 219 233 220 214 226 247 248 239 234 235 248 258 276 291 296 295 279 273 276 282 280 277 281 279 275 266 263 269 272 270 269
242 245 253 250 245 243 243 244 241 237 233 228 227 232 218 217 224 235 245 252 249 246 259 267 278 285 289 287 287 282 275 272 273 278 282 284 285 282 274 275 277 276 278
241 249 254 251 250 247 244 243 236 233 232 232 229 220 215 221 233 244 258 267 264 260 264 272 278 279 284 286 286 286 282 277 280 281 283 287 288 287 284 283 280 280 282
Height
5889 5888 5888 5887 5887 5886 5886 5885 5885 5885 5884 5883 5883 5882 5882 5881 5881 5880 5879 5879 5878 5878 5877 5877 5877 5877 5877 5877 5877 5877 5878 5878 5879 5879 5879 5880 5881 5881 5881 5882 5882 5883 5883
5889 5888 5888 5887 5887 5886 5886 5885 5885 5884 5884 5883 5883 5882 5881 5881 5880 5879 5879 5878 5878 5877 5877 5876 5876 5876 5876 5876 5876 5876 5877 5877 5877 5878 5878 5879 5880 5880 5880 5881 5881 5882 5882
5888 5887 5887 5887 5886 5886 5885 5885 5884 5884 5883 5883 5882 5881 5880 5880 5879 5879 5878 5877 5877 5876 5876 5876 5875 5875 5875 5875 5875 5876 5876 5876 5876 5877 5877 5878 5878 5879 5879 5880 5880 5880 5881
5887 5887 5886 5886 5886 5885 5885 5884 5884 5883 5883 5882 5881 5881 5880 5879 5878 5878 5877 5877 5876 5876 5875 5875 5874 5874 5874 5874 5874 5874 5875 5875 5875 5876 5876 5877 5877 5877 5878 5879 5879 5879 5880
5886 5886 5886 5885 5885 5885 5884 5884 5883 5883 5882 5881 5880 5880 5879 5878 5878 5877 5876 5876 5875 5875 5874 5874 5874 5873 5873 5873 5873 5873 5873 5874 5874 5874 5875 5876 5876 5876 5877 5878 5878 5878 5879
5885 5885 5885 5884 5884 5884 5883 5883 5882 5882 5881 5880 5880 5879 5878 5877 5877 5876 5875 5875 5874 5874 5873 5873 5872 5872 5872 5871 5871 5872 5872 5872 5873 5873 5874 5874 5875 5875 5876 5876 5877 5877 5877
5884 5884 5884 5883 5883 5883 5882 5882 5882 5881 5880 5879 5879 5878 5877 5876 5875 5875 5874 5874 5873 5873 5872 5872 5871 5871 5870 5870 5870 5870 5870 5871 5871 5871 5872 5872 5873 5874 5874 5875 5875 5875 5876
5882 5882 5882 5882 5882 5881 5881 5881 5880 5880 5879 5878 5877 5877 5876 5875 5874 5873 5873 5872 5872 5871 5871 5870 5870 5869 5869 5868 5868 5868 5869 5869 5869 5870 5870 5871 5871 5872 5873 5873 5873 5874 5874
5881 5881 5881 5881 5880 5880 5880 5879 5879 5878 5878 5877 5876 5875 5874 5874 5873 5872 5871 5871 5870 5870 5870 5869 5869 5868 5867 5867 5867 5867 5867 5867 5867 5868 5869 5869 5870 5870 5871 5871 5871 5872 5872
5879 5879 5879 5879 5879 5878 5878 5878 5877 5877 5876 5875 5875 5874 5873 5872 5871 5871 5870 5869 5869 5868 5868 5868 5867 5866 5866 5865 5865 5865 5865 5866 5866 5866 5867 5867 5868 5868 5869 5869 5870 5870 5871
5877 5877 5877 5877 5877 5876 5876 5876 5876 5875 5875 5874 5873 5872 5871 5871 5870 5869 5868 5867 5867 5867 5866 5866 5865 5865 5864 5864 5864 5863 5864 5864 5864 5865 5865 5865 5866 5866 5867 5867 5868 5868 5869
5876 5876 5875 5875 5875 5875 5875 5874 5874 5874 5873 5872 5872 5871 5870 5869 5869 5868 5867 5866 5866 5865 5865 5864 5864 5863 5863 5862 5862 5862 5862 5862 5863 5863 5863 5864 5864 5865 5865 5866 5866 5866 5867
5874 5874 5873 5873 5873 5873 5873 5872 5872 5872 5871 5871 5870 5869 5868 5868 5867 5866 5866 5865 5864 5864 5863 5863 5862 5862 5862 5861 5861 5861 5861 5861 5861 5861 5862 5862 5862 5863 5863 5864 5864 5865 5865
5871 5871 5871 5871 5871 5871 5871 5870 5870 5870 5869 5869 5868 5868 5867 5867 5866 5865 5865 5864 5863 5862 5862 5862 5861 5861 5860 5860 5860 5859 5859 5860 5860 5860 5860 5860 5861 5861 5861 5862 5862 5863 5863
5869 5869 5869 5869 5869 5869 5869 5868 5868 5868 5867 5867 5867 5867 5866 5866 5865 5864 5863 5863 5862 5861 5861 5860 5860 5860 5859 5859 5858 5858 5858 5858 5858 5859 5859 5859 5859 5860 5860 5860 5861 5861 5861
5866 5867 5867 5867 5867 5867 5866 5866 5866 5866 5866 5866 5865 5865 5865 5864 5863 5863 5862 5862 5861 5860 5860 5859 5859 5859 5858 5858 5857 5857 5857 5857 5857 5858 5858 5858 5858 5859 5859 5859 5859 5859 5859
5865 5865 5865 5865 5865 5864 5864 5864 5864 5864 5864 5864 5864 5863 5863 5863 5862 5862 5861 5860 5860 5859 5859 5858 5858 5858 5857 5857 5857 5856 5856 5856 5856 5857 5857 5857 5857 5857 5858 5857 5857 5856 5855
5862 5863 5863 5863 5863 5862 5862 5862 5862 5862 5862 5862 5862 5862 5862 5861 5861 5860 5860 5859 5859 5858 5858 5858 5857 5857 5857 5857 5856 5856 5856 5855 5856 5856 5856 5856 5856 5856 5856 5856 5856 5854 5854
5860 5860 5861 5861 5861 5861 5861 5861 5861 5861 5861 5861 5861 5861 5861 5860 5859 5859 5859 5858 5858 5858 5857 5857 5857 5857 5857 5856 5856 5855 5855 5855 5855 5855 5855 5855 5855 5855 5855 5855 5855 5854 5854
5858 5859 5859 5859 5859 5859 5859 5859 5859 5859 5859 5859 5859 5860 5859 5859 5859 5858 5858 5857 5857 5857 5857 5857 5856 5856 5856 5856 5855 5855 5855 5855 5854 5854 5855 5854 5854 5854 5854 5854 5854 5854 5854
5857 5857 5858 5858 5858 5857 5858 5858 5858 5858 5858 5858 5858 5858 5858 5858 5858 5857 5857 5857 5857 5857 5856 5856 5856 5856 5855 5855 5855 5855 5854 5854 5854 5854 5854 5854 5854 5853 5853 5853 5853 5853 5853
5856 5856 5856 5856 5856 5856 5856 5857 5857 5857 5857 5857 5857 5857 5857 5857 5857 5857 5856 5856 5856 5856 5856 5855 5855 5855 5855 5855 5854 5854 5854 5854 5854 5853 5853 5853 5853 5852 5852 5852 5852 5852 5851
5854 5854 5854 5855 5855 5855 5855 5856 5856 5856 5856 5856 5856 5856 5856 5856 5856 5856 5856 5855 5855 5855 5855 5855 5855 5855 5854 5854 5854 5854 5853 5853 5853 5853 5852 5852 5852 5851 5851 5851 5851 5851 5850
5852 5852 5853 5853 5853 5854 5854 5854 5855 5855 5855 5855 5855 5855 5855 5855 5855 5855 5855 5855 5855 5855 5855 5854 5854 5854 5854 5853 5853 5853 5853 5852 5852 5852 5852 5851 5850 5850 5850 5850 5849 5849 5849
5851 5851 5851 5852 5852 5852 5853 5853 5853 5854 5854 5854 5854 5854 5854 5855 5854 5854 5854 5854 5854 5854 5854 5854 5854 5853 5853 5853 5852 5852 5852 5851 5851 5851 5850 5850 5849 5849 5848 5848 5848 5847 5847
5849 5849 5850 5850 5850 5851 5851 5851 5852 5852 5852 5852 5853 5853 5853 5854 5854 5854 5854 5853 5853 5853 5853 5853 5852 5852 5852 5852 5851 5851 5850 5850 5850 5850 5849 5848 5848 5847 5847 5846 5846 5845 5845